Regional Weather Roundup
Issued by NWS Bismarck, ND

Home | Current Version | Previous Version | Text Only | Print | Product List | Glossary On
Versions: 1 2 3 4 5 6 7 8 9 10 11 12 13 14 15 16 17 18 19 20 21 22 23 24 25 26 27 28 29 30 31 32 33 34 35 36 37 38 39 40 41 42 43 44 45 46 47 48 49 50
000
ASUS43 KBIS 241259
RWRBIS

NWR BROADCAST TEXT
NATIONAL WEATHER SERVICE BISMARCK ND
800 AM CDT FRI OCT 24 2014

NOTE: "FAIR" INDICATES FEW OR NO CLOUDS BELOW 12,000 FEET WITH NO
SIGNIFICANT WEATHER AND/OR OBSTRUCTIONS TO VISIBILITY.


CITY           SKY/WX    TMP DP  RH WIND       PRES   REMARKS
WILLISTON      PTCLDY    44  36  73 S3        29.83R
MINOT          PTCLDY    53  36  52 SW12      29.78R
MINOT AFB      NOT AVBL
BISMARCK       MOCLDY    39  33  79 W3        29.85R
DICKINSON      NOT AVBL
GARRISON         N/A     42  38  85 CALM      29.81S
HETTINGER ARPT MOCLDY    43  28  55 CALM      29.89S
JAMESTOWN      NOT AVBL
CARRINGTON     FAIR      45  36  70 W9        29.79S
$$

CITY           SKY/WX    TMP DP  RH WIND       PRES   REMARKS
GRAND FORKS    PTCLDY    39  35  86 SW6       29.75R
GRAND FORKS AF NOT AVBL
DEVILS LAKE    CLEAR     46  36  66 SW6       29.75S
FARGO          PTCLDY    45  40  82 S10       29.78F
GWINNER        SUNNY     45  45 100 SW13      29.82S
$$

CITY           SKY/WX    TMP DP  RH WIND       PRES   REMARKS
ABERDEEN       CLOUDY    35  34  96 SW5       29.84F
MOBRIDGE       CLOUDY    41  37  86 SE3       29.85R
RAPID CITY     CLOUDY    50  32  50 N12       29.93R
GLASGOW        CLOUDY    50  39  66 W7        29.88R
SIDNEY         MOCLDY    37  34  87 S6        29.88R
WOLF POINT     PTCLDY    45  40  82 W3        29.88R
GLENDIVE       CLEAR     46  36  66 NW6       29.92R
MILES CITY     PTCLDY    42  33  70 S6        29.95R
BAKER          PTCLDY    46  30  53 N6        29.94R
$$

CITY           SKY/WX    TMP DP  RH WIND       PRES   REMARKS
BILLINGS       MOCLDY    51  36  56 CALM      29.99R
GREAT FALLS    PTCLDY    47  34  60 SW14      29.98S
$$




USA.gov is the U.S. government's official web portal to all federal, state and local government web resources and services.